DW2919 Weather Reports


time (UTC)temp
F
wind
direction
speed
knots
gust
knots
rain 1hr
in
rain 24hr
in
rain mn
in
humidity
%
barometer
mb
20260507123121 58 30 0.9 5.2 0.00 0.00 0.00 67 1014.8
20260507121622 59 20 0.0 4.3 0.00 0.00 0.00 67 1014.9
20260507120103 59 18 2.6 5.2 0.00 0.00 0.00 66 1014.8
20260507114506 59 355 3.5 6.1 0.00 0.00 0.00 65 1014.8
20260507113117 58 304 2.6 6.1 0.00 0.00 0.00 70 1014.8
20260507111547 58 327 3.5 5.2 0.00 0.00 0.00 70 1014.8
20260507110031 58 40 0.9 5.2 0.00 0.00 0.00 69 1014.9
20260507104625 57 17 2.6 4.3 0.00 0.00 0.00 70 1015.1
20260507103111 57 20 3.5 5.2 0.00 0.00 0.00 70 1015.1
20260507101613 57 47 2.6 5.2 0.00 0.00 0.00 70 1015.1
20260507100047 57 289 2.6 4.3 0.00 0.00 0.00 71 1015.0
20260507094511 56 242 0.9 6.1 0.00 0.00 0.00 69 1014.9
20260507093002 56 157 0.9 4.3 0.00 0.00 0.00 70 1014.9
20260507091556 57 102 4.3 6.1 0.00 0.00 0.00 73 1014.8
20260507090042 56 112 2.6 8.7 0.00 0.00 0.00 78 1014.7
20260507084640 56 117 4.3 6.1 0.00 0.00 0.00 81 1014.8
20260507083103 54 98 4.3 6.1 0.00 0.00 0.00 87 1014.6
20260507081552 52 100 1.7 5.2 0.00 0.00 0.00 89 1014.6
20260507080041 50 96 3.5 5.2 0.00 0.00 0.00 90 1014.6
20260507074502 50 74 3.5 6.1 0.00 0.00 0.00 91 1014.6
20260507073118 49 86 4.3 6.1 0.00 0.00 0.00 92 1014.4
20260507071609 49 82 3.5 6.1 0.00 0.00 0.00 92 1014.3
20260507070054 48 80 4.3 6.1 0.00 0.00 0.00 93 1014.3
20260507064518 48 62 2.6 4.3 0.00 0.00 0.00 93 1014.3
20260507063008 47 60 3.5 5.2 0.00 0.00 0.00 93 1014.3
20260507061602 47 50 0.9 2.6 0.00 0.00 0.00 93 1014.2
20260507060048 46 50 0.9 4.3 0.00 0.00 0.00 93 1014.1
20260507054642 46 50 1.7 2.6 0.00 0.00 0.00 93 1013.9
20260507053125 46 50 0.0 1.7 0.00 0.00 0.00 93 1013.7
20260507051604 46 50 0.0 1.7 0.00 0.00 0.00 93 1013.5
20260507050027 45 50 0.0 0.0 0.00 0.00 0.00 93 1013.4
20260507044509 45 50 0.0 0.0 0.00 0.00 0.00 93 1013.3
20260507043125 45 50 0.0 3.5 0.00 0.00 0.00 92 1013.3
20260507041615 45 50 2.6 4.3 0.00 0.00 0.00 92 1013.2
20260507034555 45 312 0.0 0.0 0.00 0.00 0.00 93 1012.8
20260507033037 45 313 0.0 0.0 0.00 0.00 0.00 93 1012.6
20260507031501 44 312 0.0 0.0 0.00 0.00 0.00 92 1012.4
20260507030117 44 312 0.0 0.0 0.00 0.00 0.00 92 1012.4
20260507024609 44 312 0.0 0.9 0.00 0.00 0.00 92 1012.4
20260507023010 43 312 0.0 0.0 0.00 0.00 0.00 92 1012.3
20260507021625 43 312 0.9 1.7 0.00 0.00 0.00 92 1012.4
20260507020116 42 312 0.9 2.6 0.00 0.00 0.00 91 1012.3
20260507014517 42 312 0.9 4.3 0.00 0.00 0.00 91 1012.1
20260507013004 43 312 1.7 5.2 0.00 0.00 0.00 91 1012.2
20260507011617 43 342 0.0 1.7 0.00 0.00 0.00 91 1012.1
20260507010105 42 342 0.9 1.7 0.00 0.00 0.00 91 1012.1
20260507004602 42 342 0.9 1.7 0.00 0.00 0.00 91 1012.0
20260507003045 42 342 0.9 1.7 0.00 0.00 0.00 90 1012.1
20260507001509 43 342 0.0 0.0 0.00 0.00 0.00 90 1012.0
20260507000121 44 342 0.9 1.7 0.00 0.00 0.00 90 1012.0
20260506234602 44 342 0.9 1.7 0.00 0.00 0.00 90 1012.0
20260506233102 45 342 0.9 1.7 0.00 0.00 0.00 90 1011.9
20260506231514 46 342 0.0 3.5 0.00 0.00 0.00 90 1011.9
20260506230006 46 342 0.9 2.6 0.00 0.00 0.00 90 1011.9
20260506224620 47 342 0.0 1.7 0.00 0.00 0.00 89 1011.7
20260506223047 48 342 0.9 2.6 0.00 0.00 0.00 89 1011.5
20260506221618 48 342 0.9 2.6 0.00 0.00 0.00 89 1011.6
20260506220106 48 343 1.7 4.3 0.00 0.00 0.00 89 1011.6
20260506214556 49 345 1.7 4.3 0.00 0.00 0.00 89 1011.4
20260506213021 49 345 0.9 4.3 0.00 0.00 0.00 89 1011.4
20260506211505 49 321 3.5 5.2 0.00 0.00 0.00 88 1011.4
20260506210059 49 323 0.0 5.2 0.00 0.00 0.00 88 1011.3
20260506204523 50 342 2.6 6.1 0.00 0.00 0.00 87 1011.2
20260506203012 50 342 2.6 6.1 0.00 0.00 0.00 87 1011.1
20260506201628 50 346 1.7 5.2 0.00 0.00 0.00 86 1011.1
20260506200053 51 344 2.6 5.2 0.00 0.00 0.00 86 1011.0
20260506194542 51 340 2.6 7.0 0.00 0.00 0.00 85 1010.9
20260506193111 52 329 4.3 7.0 0.00 0.00 0.00 84 1010.8
20260506191601 52 342 2.6 7.8 0.00 0.00 0.00 83 1010.5
20260506190047 53 340 3.5 9.6 0.00 0.00 0.00 82 1010.4
20260506184522 53 350 7.8 12.2 0.00 0.00 0.00 80 1010.2
20260506183005 54 15 6.1 11.3 0.00 0.00 0.00 79 1010.2
20260506181628 54 17 6.1 12.2 0.00 0.00 0.00 78 1010.1
20260506174527 54 24 6.1 12.2 0.00 0.00 0.00 79 1009.8
20260506173015 55 313 7.8 13.0 0.00 0.00 0.00 78 1009.7
20260506171631 54 350 7.8 13.0 0.00 0.00 0.00 77 1009.6
20260506170013 55 13 7.0 13.9 0.00 0.00 0.00 77 1009.5
20260506164628 55 5 7.8 13.0 0.00 0.00 0.00 76 1009.4
20260506163113 55 355 9.6 16.5 0.00 0.00 0.00 74 1009.3
20260506161602 57 324 8.7 17.4 0.00 0.00 0.00 72 1009.2
20260506160008 57 360 9.6 13.9 0.00 0.00 0.00 72 1009.2
20260506154620 57 350 9.6 16.5 0.00 0.00 0.00 74 1009.2
20260506153115 57 28 9.6 16.5 0.00 0.00 0.00 75 1009.3
20260506151556 57 355 9.6 15.6 0.00 0.00 0.00 75 1009.3
20260506150049 58 355 10.4 17.4 0.00 0.00 0.00 74 1009.3
20260506144616 57 355 11.3 16.5 0.00 0.00 0.00 74 1009.2
20260506143100 57 348 9.6 15.6 0.00 0.00 0.00 74 1009.1
20260506141504 57 5 7.8 15.6 0.00 0.00 0.00 74 1009.0
20260506140106 57 5 9.6 15.6 0.00 0.00 0.00 73 1009.0
20260506134502 57 360 9.6 15.6 0.00 0.00 0.00 73 1009.0
20260506133117 57 26 9.6 17.4 0.00 0.00 0.00 72 1009.0
20260506131607 57 34 10.4 18.2 0.00 0.00 0.00 73 1008.9
20260506130023 56 350 7.8 13.9 0.00 0.00 0.00 74 1008.8
20260506124506 56 355 9.6 17.4 0.00 0.00 0.00 76 1008.7